Tracking 17844 objects as of 28-August-2016
HD Live streaming from Space Station
objects crossing your sky now

EUTELSAT 2-F4

Track EUTELSAT 2-F4 now!
EUTELSAT 2-F4 is classified as:


NORAD ID: 22028
Int'l Code: 1992-041B
Perigee: 36,084.7 km
Apogee: 36,177.8 km
Inclination: 12.5 °
Period: 1,453.4 minutes
Semi major axis: 42502 km
RCS: 3.1622 m2 (large)
Launch date: July 9, 1992
Source: European Telecommunications Satellite Organization (EUTE)
Launch site: FRENCH GUIANA (FRGUI)
Your satellite tracking list
Your tracking list is empty





NASA's NSSDC Master Catalog

Two Line Element Set (TLE):
1 22028U 92041B   16240.79337447 -.00000116  00000-0  00000+0 0  9995
2 22028  12.5367  34.6331 0010961 173.0756  71.6417  0.99079748 80755
Source of the keplerian elements: AFSPC

N2YO: 451